DW7733 Weather Reports


time (UTC)temp
F
wind
direction
speed
knots
gust
knots
rain 1hr
in
rain 24hr
in
rain mn
in
humidity
%
barometer
mb
20260503193049 51 277 4.3 9.6 0.00 0.00 0.00 76 1009.4
20260503191538 53 266 9.6 20.9 0.00 0.00 0.00 69 1009.7
20260503190046 52 262 10.4 18.2 0.00 0.00 0.00 69 1009.9
20260503184538 52 260 9.6 24.3 0.00 0.00 0.00 71 1009.9
20260503183042 51 235 4.3 5.2 0.00 0.00 0.00 75 1009.8
20260503181534 51 226 5.2 10.4 0.00 0.00 0.00 76 1009.9
20260503180042 51 262 9.6 13.0 0.00 0.00 0.00 72 1010.1
20260503174532 51 253 12.2 16.5 0.00 0.00 0.00 72 1010.1
20260503173031 53 241 12.2 14.8 0.00 0.00 0.00 69 1010.2
20260503171538 53 242 8.7 11.3 0.00 0.00 0.00 70 1010.3
20260503140119 49 232 6.1 13.0 0.00 0.00 0.00 53 1012.1
20260503081535 43 242 12.2 15.6 0.00 0.00 0.00 73 1013.7
20260503071513 34 180 0.0 2.6 0.00 0.00 0.00 80 1013.6
20260503060111 33 141 0.0 2.6 0.00 0.00 0.00 81 1014.1
20260503054556 33 138 0.0 0.9 0.00 0.00 0.00 81 1014.2
20260503053053 33 130 0.0 0.0 0.00 0.00 0.00 81 1014.3
20260503051557 33 141 0.0 0.9 0.00 0.00 0.00 81 1014.5
20260503050049 33 140 0.0 0.0 0.00 0.00 0.00 81 1014.6
20260503044548 33 142 0.0 0.0 0.00 0.00 0.00 82 1014.8
20260503043147 33 141 0.0 0.9 0.00 0.00 0.00 81 1014.9
20260503041544 34 146 0.0 0.9 0.00 0.00 0.00 80 1015.0
20260503040042 34 143 0.0 1.7 0.00 0.00 0.00 79 1015.0
20260503034542 34 143 0.0 0.9 0.00 0.00 0.00 78 1015.0
20260503033045 34 143 0.0 0.0 0.00 0.00 0.00 77 1015.1
20260503031540 34 148 0.0 0.9 0.00 0.00 0.00 77 1015.3
20260503030038 34 148 0.0 0.0 0.00 0.00 0.00 77 1015.2
20260503024539 34 152 0.0 0.0 0.00 0.00 0.00 75 1015.3
20260503023034 34 141 0.0 0.9 0.00 0.00 0.00 73 1015.5
20260503021533 35 143 0.0 0.9 0.00 0.00 0.00 72 1015.6
20260503020034 35 141 0.0 0.9 0.00 0.00 0.00 72 1015.5
20260503014542 35 141 0.0 0.9 0.00 0.00 0.00 72 1015.5
20260503013034 36 139 0.0 0.9 0.00 0.00 0.00 72 1015.5
20260503011530 36 138 0.0 0.9 0.00 0.00 0.00 70 1015.5
20260503010025 37 139 0.0 0.9 0.00 0.00 0.00 66 1015.5
20260503004528 39 137 0.0 0.9 0.00 0.00 0.00 63 1015.5
20260503003023 42 195 0.0 0.0 0.00 0.00 0.00 57 1015.5
20260503001525 46 214 0.0 0.0 0.00 0.00 0.00 52 1015.5
20260503000022 47 259 0.0 0.9 0.00 0.00 0.00 46 1015.7
20260502234520 48 277 0.0 0.9 0.00 0.00 0.00 50 1015.6
20260502233017 47 277 0.0 0.9 0.00 0.00 0.00 49 1015.7
20260502231516 46 286 0.0 0.9 0.00 0.00 0.00 53 1015.8
20260502230015 46 282 0.0 0.9 0.00 0.00 0.00 54 1015.8
20260502224508 45 287 0.0 1.7 0.00 0.00 0.00 55 1016.0
20260502223005 44 285 0.0 1.7 0.00 0.00 0.00 58 1016.1
20260502221502 43 277 0.9 2.6 0.00 0.00 0.00 59 1016.1
20260502220001 43 308 0.0 3.5 0.00 0.00 0.00 59 1016.2
20260502214600 42 315 1.7 3.5 0.00 0.00 0.00 60 1016.3
20260502213120 42 255 0.9 4.3 0.00 0.00 0.00 60 1016.3
20260502211625 42 263 1.7 4.3 0.00 0.00 0.00 64 1016.3
20260502210055 41 269 2.6 4.3 0.00 0.00 0.00 66 1016.4
20260502204551 41 290 2.6 4.3 0.00 0.00 0.00 65 1016.5
20260502203058 41 285 2.6 4.3 0.00 0.00 0.00 64 1016.6
20260502201555 41 318 2.6 4.3 0.00 0.00 0.00 63 1016.7
20260502200049 41 293 1.7 3.5 0.00 0.00 0.00 61 1016.9
20260502194554 41 274 1.7 4.3 0.00 0.00 0.00 67 1017.1